PDT6095 KPHL-KSBY

Flight info

Callsign PDT6095
Flight time 0h 31m
Altitude 12000
Route OOD TEBEE HAYDO
Aircraft DH8C/M-SDFGR/S

Departure

Time 2026-05-04 20:27
Airport Philadelphia International Airport (KPHL)

Arrival

Time 2026-05-04 20:59
Airport Salisbury Ocean City Wicomico Regional Airport (KSBY)
Time Latitude Longitude Altitude Speed Heading
2026-05-04 20:02 39.87945 -75.23538 22 ft 0 kts 338°
2026-05-04 20:19 39.87929 -75.23531 22 ft 2 kts 341°
2026-05-04 20:19 39.87908 -75.23528 23 ft 4 kts 31°
2026-05-04 20:20 39.87908 -75.23551 23 ft 4 kts 109°
2026-05-04 20:20 39.87911 -75.23563 22 ft 0 kts 109°
2026-05-04 20:22 39.87909 -75.23555 22 ft 5 kts 109°
2026-05-04 20:22 39.87891 -75.23490 23 ft 10 kts 114°
2026-05-04 20:22 39.87872 -75.23391 22 ft 13 kts 82°
2026-05-04 20:22 39.87828 -75.23295 22 ft 15 kts 161°
2026-05-04 20:23 39.87723 -75.23243 22 ft 17 kts 158°
2026-05-04 20:23 39.87609 -75.23189 22 ft 18 kts 158°
2026-05-04 20:23 39.87490 -75.23128 22 ft 19 kts 159°
2026-05-04 20:23 39.87364 -75.23064 22 ft 20 kts 159°
2026-05-04 20:24 39.87233 -75.23000 22 ft 20 kts 159°
2026-05-04 20:24 39.87150 -75.23045 22 ft 14 kts 254°
2026-05-04 20:24 39.87120 -75.23161 22 ft 13 kts 227°
2026-05-04 20:24 39.87060 -75.23246 24 ft 13 kts 242°
2026-05-04 20:25 39.87027 -75.23349 24 ft 12 kts 254°
2026-05-04 20:25 39.86998 -75.23421 24 ft 0 kts 189°
2026-05-04 20:25 39.86995 -75.23421 22 ft 4 kts 185°
2026-05-04 20:25 39.86929 -75.23402 22 ft 11 kts 171°
2026-05-04 20:26 39.86877 -75.23531 22 ft 43 kts 257°
2026-05-04 20:26 39.86743 -75.24206 22 ft 103 kts 255°
2026-05-04 20:26 39.86531 -75.25273 58 ft 137 kts 255°
2026-05-04 20:26 39.86212 -75.26529 156 ft 157 kts 239°
2026-05-04 20:27 39.85313 -75.27408 302 ft 177 kts 200°
2026-05-04 20:27 39.84055 -75.27346 439 ft 193 kts 162°
2026-05-04 20:27 39.82894 -75.26461 896 ft 186 kts 150°
2026-05-04 20:27 39.81836 -75.25617 1523 ft 175 kts 167°
2026-05-04 20:28 39.80617 -75.25578 1747 ft 183 kts 201°
2026-05-04 20:28 39.79450 -75.26089 2363 ft 168 kts 200°
2026-05-04 20:28 39.78351 -75.26393 3068 ft 157 kts 194°
2026-05-04 20:28 39.77250 -75.26613 3538 ft 165 kts 195°
2026-05-04 20:29 39.76130 -75.26940 4101 ft 162 kts 198°
2026-05-04 20:29 39.75034 -75.27224 4743 ft 160 kts 196°
2026-05-04 20:29 39.73942 -75.27513 5347 ft 159 kts 198°
2026-05-04 20:29 39.72868 -75.27818 5907 ft 163 kts 198°
2026-05-04 20:30 39.71751 -75.28114 6440 ft 165 kts 197°
2026-05-04 20:30 39.70607 -75.28422 6971 ft 171 kts 198°
2026-05-04 20:30 39.69431 -75.28744 7515 ft 174 kts 198°
2026-05-04 20:30 39.68239 -75.29061 8083 ft 177 kts 198°
2026-05-04 20:31 39.67039 -75.29419 8647 ft 178 kts 198°
2026-05-04 20:31 39.65802 -75.29720 9189 ft 181 kts 198°
2026-05-04 20:31 39.64557 -75.30054 9730 ft 185 kts 199°
2026-05-04 20:31 39.63283 -75.30399 10276 ft 189 kts 197°
2026-05-04 20:32 39.61957 -75.30611 10838 ft 194 kts 195°
2026-05-04 20:32 39.60618 -75.30842 11402 ft 194 kts 198°
2026-05-04 20:32 39.59280 -75.31111 11949 ft 198 kts 197°
2026-05-04 20:32 39.57843 -75.31369 12076 ft 221 kts 197°
2026-05-04 20:33 39.56280 -75.31665 12151 ft 228 kts 197°
2026-05-04 20:33 39.54703 -75.31949 12176 ft 235 kts 196°
2026-05-04 20:33 39.53063 -75.32243 12214 ft 239 kts 196°
2026-05-04 20:33 39.51420 -75.32540 12355 ft 238 kts 196°
2026-05-04 20:34 39.49769 -75.32845 12390 ft 242 kts 196°
2026-05-04 20:34 39.48082 -75.33148 12365 ft 247 kts 196°
2026-05-04 20:34 39.46368 -75.33457 12354 ft 249 kts 196°
2026-05-04 20:34 39.44651 -75.33775 12344 ft 249 kts 196°
2026-05-04 20:35 39.42936 -75.34078 12297 ft 249 kts 196°
2026-05-04 20:35 39.41218 -75.34386 12231 ft 249 kts 196°
2026-05-04 20:35 39.39497 -75.34704 12168 ft 250 kts 196°
2026-05-04 20:35 39.37769 -75.35012 12094 ft 251 kts 195°
2026-05-04 20:36 39.36037 -75.35323 12028 ft 250 kts 196°
2026-05-04 20:36 39.34321 -75.35633 12039 ft 247 kts 196°
2026-05-04 20:36 39.32619 -75.35935 12031 ft 245 kts 196°
2026-05-04 20:36 39.30937 -75.36240 12030 ft 243 kts 196°
2026-05-04 20:37 39.29264 -75.36544 12011 ft 243 kts 196°
2026-05-04 20:37 39.27591 -75.36840 12003 ft 243 kts 196°
2026-05-04 20:37 39.25923 -75.37142 12013 ft 241 kts 196°
2026-05-04 20:37 39.24267 -75.37439 12010 ft 240 kts 196°
2026-05-04 20:38 39.22634 -75.37729 11999 ft 240 kts 196°
2026-05-04 20:38 39.20978 -75.38032 11984 ft 240 kts 196°
2026-05-04 20:38 39.19293 -75.38125 11984 ft 246 kts 185°
2026-05-04 20:38 39.17586 -75.38007 11983 ft 245 kts 186°
2026-05-04 20:39 39.15882 -75.37922 11983 ft 245 kts 186°
2026-05-04 20:39 39.14180 -75.37878 11985 ft 245 kts 187°
2026-05-04 20:39 39.12480 -75.37829 11996 ft 244 kts 186°
2026-05-04 20:39 39.10781 -75.37761 11996 ft 244 kts 187°
2026-05-04 20:40 39.09083 -75.37718 11981 ft 244 kts 187°
2026-05-04 20:40 39.07377 -75.37660 11969 ft 246 kts 186°
2026-05-04 20:40 39.05670 -75.37597 11979 ft 245 kts 187°
2026-05-04 20:40 39.03962 -75.37554 11988 ft 245 kts 186°
2026-05-04 20:41 39.02256 -75.37489 11988 ft 245 kts 187°
2026-05-04 20:41 39.00550 -75.37436 11983 ft 246 kts 187°
2026-05-04 20:41 38.98835 -75.37384 12002 ft 246 kts 186°
2026-05-04 20:41 38.97120 -75.37326 11996 ft 246 kts 187°
2026-05-04 20:42 38.95432 -75.37274 11998 ft 246 kts 187°
2026-05-04 20:42 38.93716 -75.37218 12004 ft 246 kts 186°
2026-05-04 20:42 38.92003 -75.37162 12026 ft 245 kts 187°
2026-05-04 20:42 38.90298 -75.37112 12022 ft 246 kts 187°
2026-05-04 20:43 38.88580 -75.37058 11963 ft 248 kts 187°
2026-05-04 20:43 38.86852 -75.36998 11963 ft 248 kts 186°
2026-05-04 20:43 38.85131 -75.36940 11967 ft 247 kts 187°
2026-05-04 20:43 38.83414 -75.36887 11960 ft 247 kts 187°
2026-05-04 20:44 38.81698 -75.36838 11959 ft 247 kts 186°
2026-05-04 20:44 38.79983 -75.36773 11972 ft 246 kts 186°
2026-05-04 20:44 38.78272 -75.36721 11976 ft 245 kts 187°
2026-05-04 20:44 38.76583 -75.36671 11975 ft 245 kts 186°
2026-05-04 20:45 38.74878 -75.36611 11976 ft 246 kts 186°
2026-05-04 20:45 38.73163 -75.36561 11975 ft 246 kts 187°
2026-05-04 20:45 38.71448 -75.36503 11970 ft 246 kts 186°
2026-05-04 20:45 38.69730 -75.36447 11965 ft 247 kts 187°
2026-05-04 20:46 38.68015 -75.36395 11967 ft 247 kts 187°
2026-05-04 20:46 38.66299 -75.36338 11968 ft 247 kts 186°
2026-05-04 20:46 38.64582 -75.36280 11996 ft 245 kts 187°
2026-05-04 20:46 38.62875 -75.36233 11996 ft 246 kts 187°
2026-05-04 20:47 38.61163 -75.36177 11976 ft 247 kts 186°
2026-05-04 20:47 38.59443 -75.36101 11965 ft 250 kts 181°
2026-05-04 20:47 38.57742 -75.35414 11817 ft 266 kts 157°
2026-05-04 20:47 38.56158 -75.34121 11647 ft 274 kts 151°
2026-05-04 20:48 38.54579 -75.32718 11441 ft 278 kts 150°
2026-05-04 20:48 38.53004 -75.31313 11251 ft 281 kts 150°
2026-05-04 20:48 38.51397 -75.29886 11073 ft 282 kts 150°
2026-05-04 20:48 38.49777 -75.28451 10834 ft 284 kts 150°
2026-05-04 20:49 38.48148 -75.27015 10404 ft 282 kts 151°
2026-05-04 20:49 38.46543 -75.25605 9966 ft 279 kts 151°
2026-05-04 20:49 38.44987 -75.24231 9515 ft 266 kts 151°
2026-05-04 20:49 38.43493 -75.22899 9039 ft 259 kts 151°
2026-05-04 20:50 38.42040 -75.21593 8537 ft 252 kts 151°
2026-05-04 20:50 38.40627 -75.20306 8032 ft 247 kts 151°
2026-05-04 20:50 38.39235 -75.19041 7502 ft 244 kts 150°
2026-05-04 20:50 38.37861 -75.17788 6977 ft 240 kts 150°
2026-05-04 20:51 38.36510 -75.16554 6445 ft 237 kts 150°
2026-05-04 20:51 38.35174 -75.15341 5907 ft 234 kts 154°
2026-05-04 20:51 38.33699 -75.14729 5399 ft 216 kts 187°
2026-05-04 20:51 38.32343 -75.15267 4927 ft 203 kts 216°
2026-05-04 20:52 38.31227 -75.16288 4572 ft 193 kts 220°
2026-05-04 20:52 38.30184 -75.17300 4231 ft 185 kts 220°
2026-05-04 20:52 38.29173 -75.18278 3875 ft 180 kts 220°
2026-05-04 20:52 38.28176 -75.19223 3516 ft 178 kts 219°
2026-05-04 20:53 38.27178 -75.20208 3190 ft 184 kts 220°
2026-05-04 20:53 38.26168 -75.21230 2873 ft 187 kts 220°
2026-05-04 20:53 38.25181 -75.22296 2565 ft 185 kts 230°
2026-05-04 20:53 38.24634 -75.23748 2269 ft 189 kts 263°
2026-05-04 20:54 38.24789 -75.25420 2044 ft 189 kts 280°
2026-05-04 20:54 38.24982 -75.26478 1994 ft 182 kts 280°
2026-05-04 20:54 38.25344 -75.28510 1885 ft 175 kts 279°
2026-05-04 20:54 38.25524 -75.29514 1748 ft 176 kts 280°
2026-05-04 20:55 38.25785 -75.31006 1659 ft 169 kts 279°
2026-05-04 20:55 38.26032 -75.32441 1569 ft 164 kts 279°
2026-05-04 20:55 38.26316 -75.34273 1585 ft 155 kts 278°
2026-05-04 20:55 38.26526 -75.35634 1659 ft 161 kts 279°
2026-05-04 20:56 38.26674 -75.36601 1708 ft 169 kts 279°
2026-05-04 20:56 38.26881 -75.38114 1751 ft 178 kts 277°
2026-05-04 20:56 38.27114 -75.39694 1746 ft 186 kts 288°
2026-05-04 20:56 38.27878 -75.41020 1740 ft 192 kts 310°
2026-05-04 20:57 38.28811 -75.42248 1595 ft 192 kts 312°
2026-05-04 20:57 38.29720 -75.43467 1411 ft 190 kts 310°
2026-05-04 20:57 38.30575 -75.44737 1097 ft 188 kts 305°
2026-05-04 20:57 38.31346 -75.46048 845 ft 182 kts 304°
2026-05-04 20:58 38.32081 -75.47364 562 ft 180 kts 305°
2026-05-04 20:58 38.32814 -75.48626 328 ft 173 kts 304°
2026-05-04 20:58 38.33529 -75.49829 110 ft 164 kts 304°
2026-05-04 20:58 38.34142 -75.50892 55 ft 88 kts 304°
2026-05-04 20:59 38.34370 -75.51279 55 ft 55 kts 308°
2026-05-04 20:59 38.34562 -75.51598 47 ft 25 kts 304°
2026-05-04 20:59 38.34535 -75.51719 53 ft 9 kts 214°
2026-05-04 20:59 38.34494 -75.51714 54 ft 5 kts 129°
2026-05-04 21:00 38.34483 -75.51693 55 ft 2 kts 125°
2026-05-04 21:00 38.34477 -75.51682 55 ft 8 kts 127°
2026-05-04 21:00 38.34444 -75.51639 49 ft 2 kts 175°
2026-05-04 21:00 38.34425 -75.51650 48 ft 4 kts 214°
2026-05-04 21:01 38.34407 -75.51666 55 ft 1 kts 215°
2026-05-04 21:01 38.34407 -75.51667 55 ft 0 kts 215°